LANDSAT 8

Last updated on Thu Oct 30 2025 00:02:31 GMT+0000 (Coordinated Universal Time)

1 39084U 13008A 25302.50188234 .00000571 00000+0 13676-3 0 9997 2 39084 98.2121 11.2165 0001290 88.2660 271.8686 14.57104555664301
UTC large
Height (km)
Speed (km/s)
/
Latitude / Longitude
Inclination (degrees)
Orbital Period (minutes)
Azimuth
Elevation
Range (km)
Doppler Factor

Next 0 passes for location: London (51.5072 / 0.1276)

Sorry there are no passes over London.